Location: ??????????
(55.9100°N, 38.5733°E)
Time: 05:01:41
(UTC+00:00)

Daily predictions for brighter satellites

Satellite Brightness Start Highest point End
(mag) Time Altitude Azimuth Time Altitude Azimuth Time Altitude Azimuth
ADEOS II 3.6 00:04:50 10° NNE 00:07:34 32° NNE 00:07:34 32° NNE
Tsikada Rocket 4.5 00:13:15 55° E 00:13:15 55° E 00:19:09 10° NNE
Cosmos 2219 Rocket 4.2 00:15:18 18° NNW 00:15:27 18° N 00:19:21 10° NE
ARIANE 5 R/B 3.8 00:12:12 10° NNE 00:15:30 37° NE 00:15:30 37° NE
Resurs 1-4 Rocket 3.9 00:16:43 10° N 00:18:52 23° N 00:18:52 23° N
Cosmos 2322 Rocket 4.3 00:28:58 15° NNW 00:31:41 20° NNE 00:35:52 10° ENE
CZ-2D R/B 3.9 00:28:52 10° N 00:30:54 22° N 00:30:54 22° N
NOSS 3-2 (A) 4.4 00:37:05 36° SE 00:38:03 38° ESE 00:44:06 10° ENE
CZ-2C R/B 4.2 00:40:36 10° NNE 00:45:00 29° E 00:48:34 13° SSE
Cosmos 2344 4.2 00:46:50 34° S 00:49:40 50° SE 00:57:31 10° NE
Cosmos 1302 Rocket 4.3 00:51:18 67° NE 00:51:23 67° ENE 00:56:40 10° SE
Cosmos 2369 4.4 00:48:58 28° NNW 00:51:47 52° NE 00:57:18 10° ESE
Cosmos 1603 4.4 00:53:21 44° NNW 00:53:21 44° NNW 00:57:50 10° NNE
Spot 4 Rocket 4.2 00:47:51 10° NNE 00:52:51 68° E 00:52:51 68° E
USA 234 3.1 00:46:40 10° ENE 00:53:14 80° SSE 00:53:54 72° SW
Cosmos 1048 Rocket 4.3 00:54:33 61° ESE 00:54:43 62° ESE 01:00:02 10° NNE
IDEFIX/ARIANE 42P 2.7 00:50:19 10° NNE 00:54:58 70° NNE 00:54:58 70° NNE
GP-B 4.0 00:55:47 46° E 00:56:05 47° E 01:00:21 10° N
Lacrosse 4 Rocket 3.9 00:55:18 13° SE 00:56:42 16° ESE 00:59:10 10° ENE
CZ-3B R/B 3.4 00:57:50 62° SW 00:58:36 66° SSW 01:19:27 10° SE
Meteor 1-16 Rocket 4.3 00:53:20 10° N 00:58:40 67° ENE 01:03:57 10° SSE
Cosmos 1025 Rocket 4.1 01:00:30 40° ESE 01:01:07 43° E 01:05:18 10° NNE
Cosmos 2279 Rocket 4.0 00:56:50 10° N 01:03:05 81° ENE 01:09:18 10° SSE
Geosat 4.0 01:00:35 10° SE 01:05:32 82° ENE 01:05:32 82° ENE
SL-16 R/B 4.0 01:02:51 12° NNW 01:07:02 26° NNE 01:11:47 10° E
Cosmos 1634 Rocket 4.0 01:01:16 10° NNW 01:07:01 65° WNW 01:07:01 65° WNW
Cosmos 1656 3.6 01:08:21 77° SSW 01:08:21 77° SSW 01:13:44 10° SSE
ADEOS Rocket 2.7 01:03:59 10° SSE 01:09:28 86° ENE 01:15:11 10° NNW
Cosmos 2333 Rocket 4.3 01:08:54 14° NNW 01:11:30 18° N 01:15:25 10° NE
COSMOS 2441 4.3 01:07:54 10° NNE 01:12:48 78° ESE 01:12:59 76° SE
Meteor 1-21 4.0 01:21:49 69° WSW 01:22:15 73° WNW 01:27:54 10° NNE
Cosmos 2237 Rocket 4.1 01:21:23 16° NNW 01:22:59 18° N 01:26:47 10° NE
Cosmos 1697 Rocket 2.6 01:22:07 29° NNW 01:25:10 84° NE 01:30:51 10° SE
Cosmos 1707 4.1 01:28:14 30° N 01:28:14 30° N 01:30:20 10° N
Cosmos 1992 Rocket 4.4 01:27:18 10° NNW 01:32:30 63° ENE 01:37:41 10° SE
Cosmos 2360 Rocket 4.1 01:29:51 10° NNW 01:34:20 23° NNE 01:38:48 10° ENE
Cosmos 220 Rocket 4.3 01:33:09 28° NNW 01:35:27 67° ENE 01:39:53 10° SE
Cosmos 1943 4.0 01:36:03 35° NW 01:36:22 35° NW 01:41:33 10° NNE
Cosmos 1536 Rocket 3.9 01:34:42 26° S 01:37:10 68° E 01:41:38 10° NNE
NOSS 3-2 (C) 4.0 01:34:17 25° SSW 01:37:38 53° SE 01:44:11 10° NE
Cosmos 468 4.5 01:38:35 58° WSW 01:39:28 69° WNW 01:44:49 10° NNE
MSX 3.7 01:36:11 10° NNE 01:41:54 66° WNW 01:43:48 42° SW
Intercosmos 24 4.4 01:40:25 10° N 01:44:52 60° ENE 01:48:27 10° SSE
Cosmos 1980 Rocket 2.3 01:41:58 14° NNW 01:46:56 73° NE 01:52:32 10° SE
SL-16 R/B 3.9 01:46:11 18° NW 01:47:43 20° NNW 01:51:50 10° NNE
ADEOS II 3.5 01:45:12 10° N 01:48:31 23° NW 01:48:31 23° NW
Cosmos 44 Rocket 4.1 01:50:27 35° SSW 01:50:27 35° SSW 01:54:12 10° S
CENTAUR R/B 3.0 01:48:26 22° SSW 01:52:39 63° SE 01:59:55 10° NE
Cosmos 1400 Rocket 3.9 01:50:14 10° N 01:54:07 45° ENE 01:57:54 10° SE
Cosmos 1867 4.3 01:54:23 34° WNW 01:55:48 41° NNW 02:01:00 10° NE
ARIANE 5 R/B 3.2 01:51:36 10° N 01:55:49 34° NW 01:55:49 34° NW
CZ-4B R/B 1.3 01:53:31 10° SSE 01:56:59 85° WSW 01:57:10 79° NW
PSLV R/B 3.4 01:52:45 10° NNE 01:57:03 83° WNW 01:59:15 29° SSW
Cosmos 2360 4.1 01:52:47 17° NW 01:57:18 77° WSW 02:02:58 10° SSE
Tsikada Rocket 4.5 01:58:07 36° W 01:58:58 37° WNW 02:04:44 10° N
Resurs 1-4 Rocket 4.1 01:58:09 10° NNW 01:59:56 13° NW 01:59:56 13° NW
Cosmos 2219 Rocket 4.2 01:57:21 10° NNW 02:01:34 21° NNE 02:05:44 10° ENE
SKYMED 2 4.0 02:02:00 10° SSE 02:06:18 64° ENE 02:10:37 10° N
Cosmos 967 Rocket 4.4 02:05:11 22° NW 02:09:15 62° SW 02:15:25 10° SSE
Cosmos 1975 Rocket 4.4 02:10:49 23° NW 02:10:49 23° NW 02:13:24 10° N
CZ-2D R/B 4.2 02:11:08 10° NNW 02:12:13 11° NW 02:12:13 11° NW
Cosmos 2278 3.6 02:07:24 10° NW 02:13:05 80° WSW 02:18:44 10° SSE
ERS-2 3.8 02:11:38 10° S 02:12:56 20° SSW 02:12:56 20° SSW
ALOS 2.5 02:12:21 10° NNE 02:17:03 71° ESE 02:21:43 10° S
Cosmos 2322 Rocket 3.3 02:11:48 10° NNW 02:17:15 43° NE 02:22:39 10° ESE
Aureole 3 3.9 02:14:13 10° N 02:17:53 62° ENE 02:22:27 10° SSE
KORONAS-FOTON 3.8 02:16:32 23° SSW 02:18:50 63° WNW 02:22:44 10° N
Nadezhda 4 Rocket 3.9 02:14:53 10° S 02:21:01 89° W 02:27:14 10° NNE
SAR-Lupe-4 3.4 02:18:04 10° S 02:21:37 64° WSW 02:25:13 10° NNW
Cosmos 1315 Rocket 4.4 02:19:10 10° N 02:23:00 37° ENE 02:26:51 10° SE
CZ-2C R/B 2.5 02:18:35 10° N 02:23:33 56° WNW 02:27:56 12° SW
SL-14 R/B 3.7 02:20:10 10° S 02:24:07 65° E 02:28:08 10° NNE
CZ-2C R/B 3.9 02:20:39 10° N 02:23:59 28° WNW 02:23:59 28° WNW
USA 238 DEB 3.6 02:19:35 21° WSW 02:24:17 82° NW 02:31:24 10° NE
USA 238 3.7 02:19:39 21° WSW 02:24:23 82° NW 02:31:30 10° NE
ADEOS 3.6 02:19:28 10° NNE 02:24:45 82° ESE 02:29:59 10° SSW
Cosmos 1726 Rocket 3.5 02:23:04 10° NNW 02:27:32 79° W 02:32:00 10° S
PAYLOAD A 4.2 02:22:57 10° N 02:27:46 49° WNW 02:32:12 13° SW
NOSS 3-2 (A) 3.5 02:24:29 23° WSW 02:28:30 75° NNW 02:35:33 10° NE
Cosmos 1300 2.5 02:25:22 10° NNW 02:29:12 71° W 02:33:00 10° S
Cosmos 1833 Rocket 3.0 02:25:05 10° SSW 02:30:41 69° ESE 02:36:20 10° NE
In-Cosmos 22 4.4 02:27:41 14° SW 02:31:59 46° WNW 02:37:17 10° N
GP-B 4.0 02:33:18 27° W 02:33:37 27° WNW 02:37:26 10° NNW
PSLV R/B 3.9 02:29:54 10° SSE 02:34:07 82° WSW 02:38:23 10° NNW
IDEFIX/ARIANE 42P 3.7 02:30:36 10° N 02:34:40 23° NW 02:35:46 22° WNW
Lacrosse 4 Rocket 1.3 02:31:40 17° SW 02:34:47 89° SE 02:38:53 10° NE
Meteor 1-24 Rocket 4.1 02:30:01 10° S 02:35:38 71° E 02:41:31 10° NNE
Cosmos 2369 4.0 02:30:59 12° NW 02:35:56 43° WSW 02:41:13 10° S
Abrixas rocket 4.0 02:35:41 15° SSW 02:35:57 15° SSW 02:37:40 10° SSE
USA 234 3.3 02:29:48 10° E 02:36:22 82° N 02:41:15 20° W
ISS -1.1 02:35:05 10° S 02:37:17 16° SSE 02:39:29 10° ESE
Meteor 2-10 Rocket 3.9 02:32:48 10° N 02:37:49 62° ENE 02:42:48 10° SSE
ATLAS 3B R/B 3.6 02:32:34 10° SSW 02:38:49 48° SE 02:45:12 10° NE
Cosmos 1025 Rocket 3.9 02:37:27 25° W 02:38:52 30° WNW 02:42:48 10° N
Cosmos 1484 Rocket 2.6 02:35:02 10° N 02:38:57 72° WNW 02:42:46 10° SSW
SAR-Lupe-1 4.3 02:35:52 10° S 02:39:18 45° W 02:42:48 10° NNW
Cosmos 1269 Rocket 4.0 02:35:07 10° SW 02:40:19 62° WNW 02:45:37 10° NNE
Cosmos 2228 3.2 02:36:38 10° NNW 02:40:50 47° W 02:45:02 10° SSW
Cosmos 1689 Rocket 2.0 02:38:20 10° S 02:41:14 57° WSW 02:44:09 10° NNW
Cosmos 1606 Rocket 3.8 02:38:10 10° NNW 02:42:29 49° W 02:46:48 10° SSW
USA 290 3.9 02:39:30 10° S 02:42:30 36° ESE 02:45:32 10° NE
Cosmos 1674 3.3 02:41:37 20° WSW 02:43:38 35° WNW 02:47:10 10° N
METEOR-M 4.1 02:38:57 10° NNE 02:44:20 89° WNW 02:49:42 10° SSW
CZ-4B R/B 3.4 02:41:11 10° NNE 02:45:05 61° ESE 02:49:10 10° S
Cosmos 2082 Rocket 2.9 02:43:36 10° SSW 02:49:05 58° ESE 02:54:37 10° NE
NOSS 5 (C) 4.3 02:48:04 17° WSW 02:50:45 80° NW 02:53:50 10° NE
Cosmos 2084 Rocket 4.5 02:48:35 15° NW 02:51:55 40° NNE 02:56:08 10° E
SL-16 R/B 2.5 02:46:24 10° NNW 02:52:07 72° NE 02:57:48 10° SE
Cosmos 1626 2.1 02:49:20 10° SSW 02:52:59 55° WNW 02:56:38 10° N
COSMO-SKYMED 1 2.7 02:50:12 10° S 02:54:25 51° W 02:58:41 10° NNW
COSMOS 2428 4.4 02:50:47 10° NNW 02:55:41 27° NNE 03:00:32 10° E
ADEOS Rocket 3.9 02:51:56 10° SW 02:55:54 20° W 02:59:59 10° NW
Cosmos 2333 Rocket 3.8 02:52:37 10° NNW 02:57:39 30° NNE 03:02:37 10° E
Meteor 2-5 Rocket 3.7 02:53:01 10° SSW 02:58:44 70° WNW 03:04:36 10° NNE
Meteor 2-8 Rocket 4.4 02:53:42 10° NNW 02:59:54 77° W 03:06:03 10° S
Cosmos 1553 Rocket 4.0 02:53:51 10° NNW 03:00:04 88° E 03:06:10 10° S
Meteor 1-31 Rocket 2.9 02:59:02 10° N 03:02:55 56° WNW 03:06:47 10° SSW
Cosmos 2344 3.8 02:56:53 12° WSW 03:03:51 67° NNW 03:12:55 10° ENE
Lacrosse 5 rocket 2.4 03:01:21 10° SW 03:04:48 39° SE 03:08:26 10° ENE
COSMOS 2406 3.2 03:01:52 10° SW 03:07:30 64° NW 03:13:10 10° NNE
Cosmos 1697 Rocket 3.7 03:04:09 10° NW 03:08:33 24° WSW 03:12:57 10° SSW
Meteor PRIRODA 3.6 03:05:23 10° NNE 03:09:03 87° WNW 03:12:43 10° SSW
Cosmos 2237 Rocket 4.1 03:04:55 10° NNW 03:09:10 21° NNE 03:13:26 10° ENE
deb Chang Zheng 4 3.8 03:08:00 10° N 03:12:05 46° WNW 03:16:09 10° SW
Cosmos 2058 Rocket 3.3 03:07:53 10° NNW 03:12:14 48° W 03:16:33 10° SSW
Okean 1-7 Rocket 3.7 03:08:00 10° S 03:12:34 89° ESE 03:17:07 10° NNE
CZ-4B R/B 4.2 03:08:48 10° N 03:13:00 49° WNW 03:17:00 10° SW
CREW DRAGON DEMO-1 DEB 4.3 03:11:10 13° WSW 03:13:10 25° SSW 03:15:42 10° SE
deb Kosmos-1763 3.9 03:12:02 10° SW 03:15:37 65° WNW 03:19:12 10° NNE
Cosmos 2026 Rocket 4.0 03:12:13 10° SSW 03:18:37 75° WNW 03:25:02 10° N
Cosmos 1455 2.2 03:14:46 10° NNW 03:18:40 90° WSW 03:22:32 10° S
ARGOS Delta rocket 4.2 03:14:01 10° N 03:19:13 57° WNW 03:24:34 10° SSW
Cosmos 2360 Rocket 2.8 03:13:55 10° NNW 03:19:30 59° NE 03:25:03 10° SE
FENGYUN 3A 4.0 03:15:54 10° N 03:21:04 45° WNW 03:26:13 10° SW
Cosmos 2195 Rocket 4.5 03:17:01 10° SSW 03:23:09 62° WNW 03:29:17 10° N
ASTRO F (AKARI) 4.5 03:22:18 10° NNE 03:25:55 66° WNW 03:29:21 10° SSW
NOSS 3-2 (C) 3.7 03:22:30 10° WSW 03:28:33 63° NNW 03:35:40 10° NE
Cosmos 1892 Rocket 3.7 03:25:29 10° SSW 03:29:43 50° WNW 03:34:01 10° N
CZ-4B R/B 3.5 03:29:20 10° W 03:29:48 10° W 03:30:16 10° WNW
Cosmos 1400 Rocket 3.9 03:27:09 10° NW 03:30:21 23° W 03:33:29 10° SW
Cosmos 1980 Rocket 3.1 03:25:49 10° NW 03:30:30 28° WSW 03:35:10 10° SSW
H-2A R/B 3.0 03:27:26 10° NNE 03:31:55 70° ESE 03:36:13 10° S
SL-16 R/B 4.1 03:30:02 10° NNW 03:34:01 19° NNE 03:38:00 10° ENE
Meteor 2-15 4.5 03:28:24 10° NNW 03:34:28 66° W 03:40:27 10° S
YAOGAN 6 3.1 03:36:18 10° NNE 03:40:01 68° ESE 03:43:41 10° S
Cosmos 2251 Rocket 3.6 03:35:18 10° SW 03:40:38 65° WNW 03:45:58 10° NNE
SJ-12 4.4 03:37:36 10° N 03:41:26 38° WNW 03:45:15 10° SW
CENTAUR R/B 3.0 03:37:04 10° WSW 03:43:33 60° NNW 03:51:17 10° ENE
MOS 1 Rocket 3.2 03:39:46 10° S 03:43:58 54° W 03:48:13 10° NNW
Okean O Rocket 2.7 03:40:10 10° NNE 03:44:25 51° E 03:48:40 10° S
CZ-2C R/B 3.0 03:40:08 10° SSE 03:45:44 82° ENE 03:51:25 10° NNW
Cosmos 2219 Rocket 3.2 03:41:33 10° NNW 03:46:59 44° NE 03:52:22 10° ESE
